Weather History for Luxor, Egypt

Change the Weather History Date:

Sunday, December 9, 2012

  Actual Average Record
Temperature  
Mean Temperature 64 °F -  
Max Temperature 78 °F 71 °F 87 °F (1998)
Min Temperature 51 °F 45 °F 46 °F (2003)
Growing Degree Days 14 (Base 50)    
Moisture  
Dew Point 49 °F    
Average Humidity 55    
Maximum Humidity 72    
Minimum Humidity 34    
Precipitation  
Precipitation 0.00 in 0.00 in - ()
Sea Level Pressure  
Sea Level Pressure 29.97 in    
Wind  
Wind Speed 0 mph ()    
Max Wind Speed 5 mph    
Max Gust Speed -    
Visibility 4.6 miles    
Events      
Averages and records for this station are not official NWS values.
T = Trace of Precipitation, MM = Missing Value Source: Averaged Metar Reports

Daily Weather History Graph

Daily Weather History Graph

Search for Another Location

Airport:

Trip Planner

Search our weather history database for the weather conditions in past years. The results will help you decide how hot, cold, wet, or windy it might be!

Date:

Astronomy

Dec. 09, 2012 Rise Set
Actual Time 6:24 AM EET 4:59 PM EET
Civil Twilight 5:59 AM EET 5:24 PM EET
Nautical Twilight 5:30 AM EET 5:52 PM EET
Astronomical Twilight 5:02 AM EET 6:20 PM EET
Moon 1:53 AM EET (12/9) 1:35 PM EET (12/9)
Length of Visible Light 11h 24m
Length of Day
10h 34m
Waning Crescent, 21% of the Moon is Illuminated
Dec 9
Waning Crescent
Dec 13
New
Dec 20
First Quarter
Dec 28
Full
Jan 5
Last Quarter

Hourly Weather History & Observations

Time (EET) Temp. Dew Point Humidity Pressure Visibility Wind Dir Wind Speed Gust Speed Precip Events Conditions
12:00 AM 60.8 °F 46.4 °F 59% 30.01 in - Calm Calm - N/A   Clear
1:00 AM 60.8 °F 44.6 °F 55% 30.01 in - Calm Calm - N/A   Clear
2:00 AM 57 °F 47 °F 61% 30.00 in 6 mi Calm Calm - -  
2:00 AM 57.2 °F 46.4 °F 67% 29.98 in - Calm Calm - N/A   Clear
3:00 AM 57.2 °F 46.4 °F 67% 29.98 in - Calm Calm - N/A   Clear
4:00 AM 55.4 °F 46.4 °F 72% 29.98 in - Calm Calm - N/A   Clear
5:00 AM 53.6 °F 41.0 °F 62% 29.98 in - Calm Calm - N/A   Clear
6:00 AM 53.6 °F 41.0 °F 62% 29.98 in - Calm Calm - N/A   Clear
7:00 AM 53.6 °F 42.8 °F 67% 30.01 in - Calm Calm - N/A   Clear
8:00 AM 58 °F 47 °F 58% 30.04 in 6 mi Calm Calm - -   Scattered Clouds
8:00 AM 57.2 °F 46.4 °F 67% 30.04 in - Calm Calm - N/A   Clear
9:00 AM 60.8 °F 48.2 °F 63% 30.04 in 5.0 mi East 2.3 mph - N/A   Unknown
10:00 AM 66.2 °F 46.4 °F 49% 30.01 in 5.0 mi Calm Calm - N/A   Unknown
11:00 AM 71.6 °F 50.0 °F 46% 30.01 in 5.0 mi Calm Calm - N/A   Unknown
12:00 PM 73.4 °F 51.8 °F 47% 29.95 in - Calm Calm - N/A   Clear
1:00 PM 77.0 °F 55.4 °F 47% 29.92 in - Calm Calm - N/A   Clear
2:00 PM 78 °F 55 °F 34% 29.91 in 6 mi Calm Calm - -   Clear
2:00 PM 77.0 °F 55.4 °F 47% 29.92 in - Calm Calm - N/A   Clear
3:00 PM 78.8 °F 57.2 °F 47% 29.92 in - West 2.3 mph - N/A   Clear
4:00 PM 78.8 °F 53.6 °F 42% 29.92 in - WSW 4.6 mph - N/A   Clear
5:00 PM 73.4 °F 53.6 °F 50% 29.92 in - Calm Calm - N/A   Clear
6:00 PM 71.6 °F 48.2 °F 43% 29.92 in - Calm Calm - N/A   Clear
7:00 PM 68.0 °F 48.2 °F 49% 29.95 in - Calm Calm - N/A   Clear
8:00 PM 66 °F 47 °F 40% 29.95 in 1 mi Calm Calm - -   Smoke
8:00 PM 64.4 °F 48.2 °F 56% 29.95 in 3.7 mi Calm Calm - N/A   Unknown
9:00 PM 64.4 °F 48.2 °F 56% 29.95 in 3.7 mi Calm Calm - N/A   Unknown
10:00 PM 64.4 °F 48.2 °F 56% 29.95 in - Calm Calm - N/A   Clear
11:00 PM 62.6 °F 50.0 °F 63% 29.95 in - Calm Calm - N/A   Clear